Starlink 1605

operational
NORAD ID: 46123 Int'l Des: 2020-057 Owner: SPXS Country: US Constellation: starlink
LEOCIRCULAR

关于 Starlink 1605

正在加载描述...

实时位置

正在加载3D地球...

即将过境

高度历史

Altitude vs Time

uPlot chart will show altitude changes over time

两行轨道根数

1 46123U 20057G 25351.00003472 .00154141 00000-0 14564-2 0 9990
2 46123 53.0432 253.9920 0008684 68.5759 61.8220 15.65986146 5882
Epoch: Dec 17, 2025 • Age: 12 hours

当前状态

高度 370.2 km
速度 7.69 km/s
星下点 15.13°N, 147.65°E
发射日期 Aug 18, 2020
运行时间 5.3 years
类型 internet

技术详情

分类 Payload
质量 260.00 kg
干质量 248.00 kg
总质量 260.00 kg
长度 0.20 m
直径 2.80 m
跨度 9.00 m
形状 Box + pan
制造商 SPXS
平台类型 Starlink
阶段状态 In Orbit
所有者/国家 SPXS/US

大型星座

Loading constellations...